GW4050 Weather Reports


time (UTC)temp
C
wind
direction
speed
KPH
gust
KPH
rain 1hr
cm
rain 24hr
cm
rain mn
cm
humidity
%
barometer
mb
20260507222320 10 150 0.0 4.8 0.00 0.00 0.00 78 1015.3
20260507221340 10 0.0 0.0 0.00 0.00 0.00 78 1015.3
20260507220317 10 166 1.6 4.8 0.00 0.00 0.00 78 1015.3
20260507215337 10 0.0 0.0 0.00 0.00 0.00 78 1015.3
20260507214318 10 0.0 0.0 0.00 0.00 0.00 78 1015.3
20260507213317 10 174 1.6 4.8 0.00 0.00 0.00 79 1015.2
20260507212317 10 189 1.6 4.8 0.00 0.00 0.00 79 1015.3
20260507211318 10 0.0 0.0 0.00 0.00 0.00 79 1015.2
20260507210318 10 0.0 0.0 0.00 0.00 0.00 78 1015.2
20260507205318 10 0.0 0.0 0.00 0.00 0.00 78 1015.1
20260507204318 10 0.0 0.0 0.00 0.00 0.00 77 1015.0
20260507203318 10 0.0 0.0 0.00 0.00 0.00 76 1014.9
20260507202318 10 0.0 0.0 0.00 0.00 0.00 75 1014.8
20260507201319 10 0.0 0.0 0.00 0.00 0.00 74 1014.8
20260507200318 10 75 0.0 3.2 0.00 0.00 0.00 75 1014.6
20260507195319 11 0.0 0.0 0.00 0.00 0.00 73 1014.6
20260507194320 11 0.0 0.0 0.00 0.00 0.00 71 1014.5
20260507193316 11 0.0 0.0 0.00 0.00 0.00 71 1014.4
20260507192316 11 138 0.0 3.2 0.00 0.00 0.00 70 1014.3
20260507191319 11 200 3.2 6.4 0.00 0.00 0.00 68 1014.4
20260507190320 12 171 3.2 6.4 0.00 0.00 0.00 66 1014.3
20260507185317 12 213 3.2 6.4 0.00 0.00 0.00 66 1014.2
20260507184317 12 215 3.2 6.4 0.00 0.00 0.00 68 1014.2
20260507183317 12 216 3.2 6.4 0.00 0.00 0.00 67 1014.1
20260507182337 12 210 3.2 8.0 0.00 0.00 0.00 74 1014.1
20260507181317 12 0.0 0.0 0.00 0.00 0.00 78 1014.1
20260507180318 12 0.0 0.0 0.00 0.00 0.00 79 1014.1
20260507175318 12 118 1.6 4.8 0.00 0.00 0.00 78 1014.0
20260507174318 12 139 1.6 6.4 0.00 0.00 0.00 77 1014.1
20260507173318 12 94 1.6 4.8 0.00 0.00 0.00 76 1014.1
20260507172319 12 125 6.4 9.7 0.00 0.00 0.00 75 1014.1
20260507171316 13 197 3.2 6.4 0.00 0.00 0.00 71 1014.1
20260507170316 13 204 3.2 6.4 0.00 0.00 0.00 71 1014.0
20260507165319 13 220 6.4 9.7 0.00 0.00 0.00 69 1014.1
20260507164320 13 229 1.6 4.8 0.00 0.00 0.00 69 1014.1
20260507163339 12 198 0.0 4.8 0.00 0.00 0.00 72 1014.0
20260507162317 12 221 1.6 6.4 0.00 0.00 0.00 76 1014.1
20260507161317 12 206 0.0 3.2 0.00 0.00 0.00 78 1014.1
20260507160317 11 184 0.0 3.2 0.00 0.00 0.00 78 1014.1
20260507155317 12 314 0.0 3.2 0.00 0.00 0.00 78 1014.0
20260507154320 11 0.0 0.0 0.00 0.00 0.00 78 1014.1
20260507153317 12 0.0 0.0 0.00 0.00 0.00 77 1014.1
20260507152318 12 190 0.0 1.6 0.00 0.00 0.00 75 1014.1
20260507151337 12 285 0.0 3.2 0.00 0.00 0.00 71 1014.1
20260507150318 13 222 0.0 4.8 0.00 0.00 0.00 68 1014.1
20260507145339 13 154 1.6 9.7 0.00 0.00 0.00 67 1014.0
20260507144318 13 110 3.2 6.4 0.00 0.00 0.00 65 1014.0
20260507143318 13 134 0.0 3.2 0.00 0.00 0.00 63 1014.0
20260507142318 13 172 3.2 6.4 0.00 0.00 0.00 63 1014.2
20260507141319 13 168 3.2 8.0 0.00 0.00 0.00 64 1014.3
20260507140319 13 175 3.2 6.4 0.00 0.00 0.00 65 1014.4
20260507135319 13 153 1.6 4.8 0.00 0.00 0.00 64 1014.4
20260507134336 13 130 0.0 1.6 0.00 0.00 0.00 64 1014.4
20260507133316 13 177 0.0 3.2 0.00 0.00 0.00 64 1014.4
20260507132320 13 96 1.6 4.8 0.00 0.00 0.00 64 1014.4
20260507131319 13 117 4.8 9.7 0.00 0.00 0.00 64 1014.5
20260507130317 13 117 4.8 8.0 0.00 0.00 0.00 64 1014.5
20260507125317 13 115 4.8 6.4 0.00 0.00 0.00 62 1014.5
20260507124318 14 117 6.4 11.3 0.00 0.00 0.00 62 1014.4
20260507123357 14 159 3.2 8.0 0.00 0.00 0.00 60 1014.5
20260507122318 13 118 6.4 9.7 0.00 0.00 0.00 61 1014.6
20260507121317 13 107 4.8 9.7 0.00 0.00 0.00 62 1014.6
20260507120318 13 106 4.8 8.0 0.00 0.00 0.00 62 1014.7
20260507115318 13 172 4.8 8.0 0.00 0.00 0.00 62 1014.8
20260507114318 13 114 1.6 6.4 0.00 0.00 0.00 64 1014.8
20260507113318 13 165 0.0 3.2 0.00 0.00 0.00 65 1014.8
20260507112338 12 179 0.0 3.2 0.00 0.00 0.00 65 1014.8
20260507111319 12 109 3.2 6.4 0.00 0.00 0.00 67 1014.8
20260507110318 12 135 4.8 9.7 0.00 0.00 0.00 69 1014.8
20260507105319 11 119 1.6 6.4 0.00 0.00 0.00 70 1014.9
20260507104339 11 105 6.4 9.7 0.00 0.00 0.00 71 1014.9
20260507103319 11 119 4.8 6.4 0.00 0.00 0.00 71 1015.0
20260507102348 11 126 3.2 8.0 0.00 0.00 0.00 72 1015.1
20260507101328 10 130 0.0 1.6 0.00 0.00 0.00 73 1015.0
20260507100328 10 134 3.2 6.4 0.00 0.00 0.00 73 1015.0
20260507095329 10 116 1.6 4.8 0.00 0.00 0.00 74 1015.0
20260507094329 10 125 0.0 1.6 0.00 0.00 0.00 76 1014.9
20260507093329 10 126 3.2 4.8 0.00 0.00 0.00 77 1014.9
20260507092329 10 0.0 0.0 0.00 0.00 0.00 78 1014.9
20260507091329 9 105 3.2 8.0 0.00 0.00 0.00 78 1014.9
20260507090320 9 110 4.8 11.3 0.00 0.00 0.00 78 1014.9
20260507085350 9 116 3.2 6.4 0.00 0.00 0.00 77 1014.9
20260507084329 9 119 1.6 4.8 0.00 0.00 0.00 77 1014.9
20260507083330 9 121 3.2 4.8 0.00 0.00 0.00 77 1014.9
20260507082321 9 116 6.4 9.7 0.00 0.00 0.00 77 1014.8
20260507081321 9 94 3.2 6.4 0.00 0.00 0.00 77 1014.9
20260507080321 9 114 3.2 4.8 0.00 0.00 0.00 77 1014.9
20260507075342 8 110 4.8 8.0 0.00 0.00 0.00 78 1014.9
20260507074321 8 113 1.6 4.8 0.00 0.00 0.00 78 1014.8
20260507073322 8 150 4.8 8.0 0.00 0.00 0.00 78 1014.8
20260507072331 8 118 1.6 4.8 0.00 0.00 0.00 78 1014.8
20260507071331 8 140 1.6 4.8 0.00 0.00 0.00 79 1014.8
20260507070322 8 101 1.6 4.8 0.00 0.00 0.00 79 1014.7
20260507065316 8 141 3.2 9.7 0.00 0.00 0.00 79 1014.7
20260507064316 8 136 1.6 3.2 0.00 0.00 0.00 79 1014.6
20260507063357 8 127 0.0 0.0 0.00 0.00 0.00 79 1014.7
20260507062317 8 132 3.2 4.8 0.00 0.00 0.00 79 1014.7
20260507061317 8 125 0.0 1.6 0.00 0.00 0.00 79 1014.7
20260507060317 8 86 0.0 0.0 0.00 0.00 0.00 79 1014.6
20260507055317 8 114 1.6 3.2 0.00 0.00 0.00 79 1014.6
20260507054318 8 127 0.0 1.6 0.00 0.00 0.00 79 1014.5
20260507053318 8 135 4.8 6.4 0.00 0.00 0.00 80 1014.5
20260507052318 8 135 3.2 3.2 0.00 0.00 0.00 80 1014.5
20260507051318 7 126 1.6 3.2 0.00 0.00 0.00 80 1014.6
20260507050318 7 115 4.8 6.4 0.00 0.00 0.00 80 1014.5
20260507045319 7 118 3.2 9.7 0.00 0.00 0.00 80 1014.4
20260507044318 7 116 3.2 4.8 0.00 0.00 0.00 80 1014.4
20260507043319 7 119 3.2 6.4 0.00 0.00 0.00 80 1014.4
20260507042316 7 118 4.8 8.0 0.00 0.00 0.00 80 1014.4
20260507041336 7 106 4.8 8.0 0.00 0.00 0.00 81 1014.5
20260507040359 7 113 4.8 8.0 0.00 0.00 0.00 81 1014.5
20260507035320 7 119 4.8 8.0 0.00 0.00 0.00 81 1014.5
20260507034320 7 117 4.8 8.0 0.00 0.00 0.00 81 1014.5
20260507033337 7 111 3.2 6.4 0.00 0.00 0.00 81 1014.5
20260507032317 7 122 6.4 8.0 0.00 0.00 0.00 81 1014.5
20260507031317 7 123 4.8 6.4 0.00 0.00 0.00 81 1014.6
20260507030317 7 134 3.2 6.4 0.00 0.00 0.00 81 1014.6
20260507025320 7 119 3.2 6.4 0.00 0.00 0.00 81 1014.6
20260507024318 7 126 6.4 9.7 0.00 0.00 0.00 81 1014.6
20260507023318 7 109 3.2 4.8 0.00 0.00 0.00 81 1014.7
20260507022317 7 108 1.6 6.4 0.00 0.00 0.00 80 1014.8
20260507021318 7 142 3.2 8.0 0.00 0.00 0.00 80 1014.8
20260507020318 8 129 1.6 4.8 0.00 0.00 0.00 80 1014.7
20260507015318 7 119 3.2 6.4 0.00 0.00 0.00 80 1014.7
20260507014338 7 127 3.2 6.4 0.00 0.00 0.00 80 1014.7
20260507013358 7 138 3.2 6.4 0.00 0.00 0.00 81 1014.7
20260507012339 7 128 4.8 8.0 0.00 0.00 0.00 81 1014.7
20260507011319 7 112 3.2 6.4 0.00 0.00 0.00 80 1014.7
20260507010316 7 127 1.6 4.8 0.00 0.00 0.00 80 1014.8
20260507005316 7 112 1.6 6.4 0.00 0.00 0.00 80 1014.9
20260507004317 7 94 4.8 9.7 0.00 0.00 0.00 80 1014.8
20260507003319 7 120 3.2 6.4 0.00 0.00 0.00 80 1014.9
20260507002320 7 117 3.2 6.4 0.00 0.00 0.00 80 1014.9
20260507001317 7 119 3.2 6.4 0.00 0.00 0.00 80 1015.0
20260507000317 7 125 3.2 4.8 0.00 0.00 0.00 79 1015.0
20260506235317 8 122 3.2 4.8 0.00 0.00 0.00 79 1015.1
20260506234318 8 117 4.8 8.0 0.00 0.00 0.00 79 1014.9
20260506233318 8 134 1.6 4.8 0.00 0.00 0.00 78 1014.9
20260506232318 8 143 3.2 9.7 0.00 0.00 0.00 78 1014.9
20260506231338 8 125 6.4 11.3 0.00 0.00 0.00 78 1014.9
20260506230319 8 105 3.2 8.0 0.00 0.00 0.00 78 1014.9
20260506225319 8 133 3.2 8.0 0.00 0.00 0.00 78 1014.9
20260506224316 8 112 1.6 4.8 0.00 0.00 0.00 78 1014.9
20260506223319 8 123 4.8 8.0 0.00 0.00 0.00 77 1014.9